Regional Weather Roundup
Issued by NWS Burlington, VT

Current Version | Previous Version | Graphics & Text | Print | Product List | Glossary Off
Versions: 1 2 3 4 5 6 7 8 9 10 11 12 13 14 15 16 17 18 19 20 21 22 23 24 25 26 27 28 29 30 31 32 33 34 35 36 37 38 39 40 41 42 43 44 45 46 47 48 49 50

000
ASUS41 KBTV 220430
RWRBTV
VERMONT REGIONAL WEATHER ROUNDUP
NATIONAL WEATHER SERVICE BURLINGTON VT
1200 AM EDT TUE AUG 22 2017

NOTE: "FAIR" INDICATES FEW OR NO CLOUDS BELOW 12,000 FEET WITH NO
SIGNIFICANT WEATHER AND/OR OBSTRUCTIONS TO VISIBILITY.

* THESE REPORTS ARE NOT UNDER NWS QUALITY CONTROL AND/OR DO NOT
  REPORT WEATHER SUCH AS PRECIPITATION AND FOG.

VTZ001>019-220500-
_____VERMONT_____


CITY           SKY/WX    TMP DP  RH WIND       PRES   REMARKS
BURLINGTON     CLEAR     74  65  73 SW7       30.02S
MONTPELIER     CLEAR     62  61  96 CALM      30.10R
MORRISVILLE    CLEAR     63  61  93 SW7       30.06R
ST. JOHNSBURY*   N/A     63  63 100 MISG      30.04R
LYNDONVILLE*   FAIR      63  61  94 CALM      30.09R
MIDDLEBURY*    FAIR      71  64  79 SE3       30.04S
RUTLAND*       CLEAR     64  61  90 SE6       30.07S
SPRINGFIELD    CLEAR     63  60  90 CALM      30.07S
HIGHGATE*      FAIR      70  65  85 S5        30.00S
NEWPORT*       CLOUDY    68  62  80 S6        30.05S
BENNINGTON     MOCLDY    68  65  90 N3        30.07F
SUTTON*          N/A     63 N/A N/A MISG        N/A
ISLAND POND*     N/A     59 N/A N/A CALM        N/A
GALLUP MILLS*    N/A     59 N/A N/A MISG        N/A
UNION VILLAGE*   N/A     63 N/A N/A MISG        N/A
MT. MANSFIELD*   N/A     63 N/A N/A W25         N/A

_____LAKE CHAMPLAIN_____


CITY           SKY/WX    TMP DP  RH WIND       PRES   REMARKS
BURTON ISLAND*   N/A     73  68  83 S7          N/A
COLCHESTER RF*   N/A     73  68  83 S7          N/A
DIAMOND ISL*     N/A     72  64  78 SW2         N/A

$$

NYZ007-026>031-035-052-083-087-220500-
_____NORTHERN NEW YORK_____


CITY           SKY/WX    TMP DP  RH WIND       PRES   REMARKS
PLATTSBURGH    CLEAR     67  62  84 SW5       30.00F
SARANAC LAKE   CLEAR     60  60 100 CALM      30.07F
MASSENA        CLEAR     71  66  84 SW7       30.00S
OGDENSBURG*    FAIR      70  66  88 SW5       30.00F
POTSDAM*       CLEAR     70  70 100 SW3       30.01F
STARK FALLS*     N/A     68 N/A N/A S3          N/A
WATERTOWN      CLEAR     69  66  90 CALM      30.01F
FT DRUM        CLEAR     70  65  84 S7        30.02F
ALBANY         PTCLDY    74  67  78 S6        30.05S
GLENS FALLS    CLEAR     64  62  93 CALM      30.03F FOG

$$
NHZ002-005-011-220500-
_____NEW HAMPSHIRE_____


CITY           SKY/WX    TMP DP  RH WIND       PRES   REMARKS
LEBANON        CLEAR     63  61  93 NE3       30.05S
KEENE            N/A    N/A N/A N/A MISG        N/A
MT WASHINGTON  FOG       50  50 100 W37         N/A  VSB 0
PLYMOUTH       FOG       59  58  95 CALM      30.06R VSB 1
WHITEFIELD     PTCLDY    59  56  89 CALM      30.06R

$$

_____REGIONAL QUEBEC LOCATIONS_____


CITY           SKY/WX    TMP DP  RH WIND       PRES   REMARKS
MONTREAL       PTCLDY    73  66  78 SW7       29.96S
QUEBEC CITY    MOCLDY    70  64  83 W6        29.95R
SHERBROOKE     MOCLDY    63  61  94 CALM      30.01S

_____REGIONAL ONTARIO LOCATIONS_____


CITY           SKY/WX    TMP DP  RH WIND       PRES   REMARKS
OTTAWA         PTCLDY    70  66  88 S6        29.97F

______KEY______
VSB  - VISIBILITY IN MILES
WCI  - WIND CHILL INDEX
HX   - HEAT INDEX
$$
NNNN




USA.gov is the U.S. government's official web portal to all federal, state and local government web resources and services.